User: anonymous   Login
Location: Waldport
(44.4270°N, 124.0680°W)
Time: 09:01:54
(UTC-08:00)
Language:

Cosmos 1570 Rocket - Orbit

View from above orbital plane
View from above orbital plane
View from above satellite
View from above satellite

Ground track
Ground track

The orbit data is extracted from the following two-line orbital elements,

1 15032U 84056B   17018.86286408 -.00000036  00000-0 -36956-5 0  9998
2 15032  74.0703 349.1832 0017791 193.4178 166.6504 14.34691304705502
Epoch (UTC): 18 January 2017 20:42:31
Eccentricity: 0.0017791
inclination: 74.0703°
perigee height: 763 km
apogee height: 789 km
right ascension of ascending node: 349.1832°
argument of perigee: 193.4178°
revolutions per day: 14.34691304
mean anomaly at epoch: 166.6504°
orbit number at epoch: 70550

The dashed part of the orbit path shows where the satellite is in the earth's shadow,  

DLR